contact:dominique.lefevre@mio.osupytheas.fr, maurice.libes@osupytheas.fr, didier.mallarino@osupytheas.fr
Project:EMSO http://www.emso-fr.org/EMSO-France
Depth: 2436.0 m
Title:EMSO Ligure Ouest : Data MII capteur AQUADOPP
Date,Latitude,Longitude,X_East,Y_North,Z_Up,Amplitude_X,Amplitude_Y,Amplitude_Z,Batterie,SoundSpeed,Heading,Pitch,Roll,Pressure,TIS,Speed,Direction
, degrees North, degrees East, m.s-1, m.s-1,m.s-1, 1, 1, 1, Volt, m.s-1, degree, degree, degree, dbar, degree_C, m.s-1, degree
2022-09-12T00:04:03,42.805,6.029,-0.002,-0.004,-0.009,101.0,103.0,101.0,13.4,1505.2,320.8,-0.7,1.8,2470.961,13.29,0.004,206.6
2022-09-12T00:07:03,42.805,6.029,-0.013,0.007,0.011,103.0,102.0,101.0,13.4,1505.2,321.8,-0.7,1.8,2470.93,13.29,0.014,298.3
2022-09-12T00:10:03,42.805,6.029,0.004,0.001,-0.018,103.0,103.0,101.0,13.4,1505.2,321.9,-0.8,1.8,2470.965,13.29,0.004,76.0
2022-09-12T00:13:03,42.805,6.029,-0.018,0.019,0.01,101.0,104.0,103.0,13.3,1505.2,323.9,-0.8,1.9,2470.971,13.29,0.026,316.5
2022-09-12T00:16:03,42.805,6.029,0.01,0.005,-0.001,102.0,103.0,102.0,13.4,1505.2,322.8,-0.8,1.8,2470.924,13.29,0.011,63.4
2022-09-12T00:19:03,42.805,6.029,0.03,0.005,-0.005,104.0,105.0,100.0,13.3,1505.2,330.4,-0.8,1.9,2470.896,13.29,0.03,80.5
2022-09-12T00:22:03,42.805,6.029,0.014,0.012,-0.002,101.0,103.0,100.0,13.3,1505.2,318.0,-0.8,1.8,2470.972,13.29,0.018,49.4
2022-09-12T00:25:03,42.805,6.029,0.006,0.009,0.018,102.0,103.0,101.0,13.4,1505.2,329.0,-0.8,1.8,2470.887,13.29,0.01,33.7
2022-09-12T00:28:03,42.805,6.029,-0.021,0.009,-0.003,102.0,103.0,101.0,13.3,1505.2,328.7,-0.8,1.8,2470.892,13.29,0.022,293.2
2022-09-12T00:31:03,42.805,6.029,0.004,0.019,0.028,101.0,103.0,101.0,13.4,1505.2,330.0,-0.8,1.8,2470.931,13.29,0.019,11.9
2022-09-12T00:34:03,42.805,6.029,0.032,0.013,-0.004,102.0,102.0,101.0,13.4,1505.2,318.8,-0.8,1.8,2470.926,13.29,0.034,67.9
2022-09-12T00:37:03,42.805,6.029,-0.021,0.028,0.0,102.0,102.0,102.0,13.4,1505.2,328.9,-0.8,1.8,2470.918,13.29,0.035,323.1
2022-09-12T00:40:03,42.805,6.029,-0.01,0.005,-0.022,102.0,102.0,100.0,13.3,1505.2,332.1,-0.8,1.8,2470.918,13.29,0.011,296.6
2022-09-12T00:43:03,42.805,6.029,-0.004,0.001,0.004,102.0,102.0,101.0,13.4,1505.2,326.6,-0.7,1.8,2470.908,13.29,0.004,284.0
2022-09-12T00:46:03,42.805,6.029,-0.002,-0.001,-0.03,101.0,103.0,100.0,13.3,1505.2,327.2,-0.7,1.8,2470.936,13.29,0.002,243.4
2022-09-12T00:49:03,42.805,6.029,0.012,0.004,0.013,100.0,103.0,102.0,13.3,1505.2,323.8,-0.8,1.8,2470.887,13.29,0.012,71.6
2022-09-12T00:52:03,42.805,6.029,0.017,-0.026,-0.035,103.0,101.0,100.0,13.4,1505.2,321.6,-0.8,1.8,2470.881,13.29,0.031,146.8
2022-09-12T00:55:03,42.805,6.029,-0.016,-0.014,-0.027,101.0,102.0,101.0,13.4,1505.2,325.9,-0.8,1.8,2470.889,13.29,0.021,228.8
2022-09-12T00:58:03,42.805,6.029,-0.014,0.002,-0.021,101.0,102.0,101.0,13.4,1505.2,328.4,-0.8,1.8,2470.905,13.29,0.014,278.1
2022-09-12T01:04:03,42.805,6.029,0.048,-0.017,0.0,103.0,103.0,102.0,13.4,1505.2,332.2,-0.7,1.9,2470.925,13.28,0.05,109.5
2022-09-12T01:07:03,42.805,6.029,0.02,0.009,0.011,102.0,102.0,101.0,13.4,1505.2,332.5,-0.8,1.8,2470.871,13.29,0.021,65.8
2022-09-12T01:10:03,42.805,6.029,0.007,0.004,-0.009,102.0,103.0,100.0,13.4,1505.2,332.2,-0.7,1.8,2470.906,13.29,0.008,60.3
2022-09-12T01:13:03,42.805,6.029,0.008,-0.008,-0.006,101.0,102.0,101.0,13.4,1505.2,330.7,-0.8,1.8,2470.882,13.29,0.011,135.0
2022-09-12T01:16:03,42.805,6.029,0.002,0.006,0.003,100.0,102.0,101.0,13.4,1505.2,330.7,-0.7,1.8,2470.87,13.29,0.006,18.4
2022-09-12T01:19:03,42.805,6.029,0.016,0.009,0.031,101.0,101.0,100.0,13.4,1505.2,319.2,-0.8,1.8,2470.864,13.29,0.018,60.6
2022-09-12T01:22:03,42.805,6.029,-0.006,-0.02,-0.048,100.0,104.0,100.0,13.3,1505.2,326.4,-0.8,1.8,2470.882,13.29,0.02,196.7
2022-09-12T01:25:03,42.805,6.029,0.009,0.024,0.01,100.0,103.0,100.0,13.4,1505.2,323.2,-0.8,1.8,2470.922,13.29,0.025,20.6
2022-09-12T01:28:03,42.805,6.029,0.01,0.0,-0.001,102.0,101.0,100.0,13.4,1505.2,318.8,-0.7,1.8,2470.869,13.29,0.01,90.0
2022-09-12T01:31:03,42.805,6.029,0.01,0.003,0.004,100.0,102.0,100.0,13.4,1505.2,320.7,-0.8,1.8,2470.884,13.29,0.01,73.3
2022-09-12T01:34:03,42.805,6.029,-0.002,0.013,-0.007,101.0,103.0,101.0,13.4,1505.2,331.1,-0.8,1.8,2470.86,13.29,0.013,351.3
2022-09-12T01:37:03,42.805,6.029,-0.006,0.019,0.017,101.0,101.0,100.0,13.4,1505.2,333.7,-0.7,1.8,2470.859,13.29,0.019,342.5
2022-09-12T01:40:03,42.805,6.029,0.003,0.007,-0.027,100.0,101.0,102.0,13.3,1505.2,323.9,-0.8,1.8,2470.826,13.29,0.007,23.2
2022-09-12T01:43:03,42.805,6.029,-0.012,0.014,-0.005,102.0,102.0,100.0,13.4,1505.2,328.5,-0.7,1.8,2470.845,13.29,0.018,319.4
2022-09-12T01:46:03,42.805,6.029,0.02,0.019,0.018,101.0,102.0,101.0,13.3,1505.2,319.9,-0.8,1.8,2470.875,13.29,0.027,46.5
2022-09-12T01:49:03,42.805,6.029,0.018,0.001,0.016,101.0,104.0,100.0,13.4,1505.2,318.2,-0.8,1.8,2470.85,13.29,0.018,86.8
2022-09-12T01:52:03,42.805,6.029,0.031,0.018,0.012,102.0,102.0,100.0,13.4,1505.2,323.7,-0.8,1.8,2470.839,13.29,0.035,59.9
2022-09-12T01:55:03,42.805,6.029,-0.008,0.005,0.016,102.0,101.0,100.0,13.3,1505.2,325.9,-0.7,1.8,2470.824,13.29,0.009,302.0
2022-09-12T01:58:03,42.805,6.029,-0.008,-0.008,-0.003,101.0,102.0,101.0,13.4,1505.2,329.8,-0.8,1.8,2470.831,13.29,0.011,225.0
2022-09-12T02:04:03,42.805,6.029,-0.012,-0.001,-0.009,100.0,102.0,102.0,13.4,1505.2,318.5,-0.8,1.8,2470.851,13.28,0.012,265.2
2022-09-12T02:07:03,42.805,6.029,-0.013,-0.012,-0.005,101.0,102.0,101.0,13.4,1505.2,328.4,-0.8,1.8,2470.857,13.28,0.017,227.3
2022-09-12T02:10:03,42.805,6.029,-0.014,0.023,0.012,101.0,100.0,102.0,13.4,1505.2,327.1,-0.8,1.8,2470.868,13.28,0.026,328.7
2022-09-12T02:13:03,42.805,6.029,0.004,0.017,0.031,103.0,100.0,100.0,13.4,1505.2,320.0,-0.8,1.8,2470.848,13.29,0.017,13.2
2022-09-12T02:16:03,42.805,6.029,-0.003,-0.017,-0.015,102.0,100.0,100.0,13.3,1505.2,323.1,-0.8,1.8,2470.848,13.29,0.017,190.0
2022-09-12T02:19:03,42.805,6.029,0.005,-0.001,-0.007,101.0,103.0,102.0,13.4,1505.2,328.7,-0.8,1.8,2470.837,13.29,0.005,101.3
2022-09-12T02:22:03,42.805,6.029,0.027,0.004,0.007,99.0,104.0,101.0,13.4,1505.2,324.0,-0.8,1.8,2470.83,13.29,0.027,81.6
2022-09-12T02:25:03,42.805,6.029,0.011,0.009,0.005,101.0,101.0,102.0,13.4,1505.2,325.0,-0.7,1.8,2470.805,13.29,0.014,50.7
2022-09-12T02:28:03,42.805,6.029,0.0,-0.007,-0.014,101.0,103.0,101.0,13.3,1505.2,334.5,-0.8,1.8,2470.831,13.29,0.007,180.0
2022-09-12T02:31:03,42.805,6.029,0.015,0.009,0.017,101.0,103.0,102.0,13.4,1505.2,327.0,-0.8,1.8,2470.86,13.29,0.017,59.0
2022-09-12T02:34:03,42.805,6.029,-0.003,0.002,-0.012,101.0,102.0,101.0,13.4,1505.2,325.7,-0.8,1.8,2470.827,13.29,0.003,303.7
2022-09-12T02:37:03,42.805,6.029,-0.001,-0.007,-0.015,100.0,102.0,100.0,13.4,1505.2,321.2,-0.8,1.8,2470.821,13.29,0.007,188.1
2022-09-12T02:40:03,42.805,6.029,0.008,0.018,0.02,101.0,102.0,101.0,13.3,1505.2,329.4,-0.8,1.8,2470.8,13.29,0.019,24.0
2022-09-12T02:43:03,42.805,6.029,0.013,-0.005,-0.007,100.0,103.0,101.0,13.4,1505.2,322.6,-0.7,1.8,2470.831,13.29,0.013,111.0
2022-09-12T02:46:03,42.805,6.029,0.0,-0.014,-0.019,99.0,102.0,102.0,13.3,1505.2,320.0,-0.7,1.8,2470.827,13.29,0.014,180.0
2022-09-12T02:49:03,42.805,6.029,0.0,0.008,0.0,100.0,101.0,101.0,13.3,1505.2,333.4,-0.7,1.8,2470.827,13.29,0.008,0.0
2022-09-12T02:52:03,42.805,6.029,0.008,0.014,0.019,101.0,101.0,100.0,13.4,1505.2,328.0,-0.8,1.8,2470.834,13.29,0.016,29.7
2022-09-12T02:55:03,42.805,6.029,-0.006,0.001,-0.013,102.0,102.0,100.0,13.4,1505.2,333.9,-0.8,1.8,2470.817,13.29,0.006,279.5
2022-09-12T02:58:03,42.805,6.029,0.036,0.008,0.027,100.0,103.0,100.0,13.4,1505.2,328.9,-0.8,1.8,2470.872,13.29,0.036,77.5
2022-09-12T03:04:03,42.805,6.029,-0.002,0.006,0.019,101.0,101.0,100.0,13.4,1505.2,327.3,-0.7,1.8,2470.848,13.28,0.006,341.6
2022-09-12T03:07:03,42.805,6.029,0.032,-0.005,-0.009,100.0,101.0,101.0,13.4,1505.2,329.8,-0.8,1.8,2470.793,13.28,0.032,98.9
2022-09-12T03:10:03,42.805,6.029,0.035,0.0,0.03,101.0,102.0,101.0,13.4,1505.2,328.2,-0.8,1.8,2470.814,13.28,0.035,90.0
2022-09-12T03:13:03,42.805,6.029,0.028,-0.009,0.014,100.0,102.0,100.0,13.4,1505.2,330.4,-0.7,1.8,2470.783,13.28,0.029,107.8
2022-09-12T03:16:03,42.805,6.029,0.012,0.007,0.029,101.0,102.0,102.0,13.3,1505.2,326.1,-0.7,1.8,2470.756,13.29,0.013,59.7
2022-09-12T03:19:03,42.805,6.029,0.002,-0.003,-0.006,101.0,101.0,100.0,13.4,1505.2,323.9,-0.8,1.8,2470.694,13.29,0.003,146.3
2022-09-12T03:22:03,42.805,6.029,0.01,0.002,-0.018,101.0,101.0,101.0,13.4,1505.2,326.1,-0.7,1.8,2470.701,13.29,0.01,78.7
2022-09-12T03:25:03,42.805,6.029,0.02,0.005,0.0,101.0,102.0,100.0,13.3,1505.2,316.9,-0.8,1.8,2470.723,13.29,0.02,76.0
2022-09-12T03:28:03,42.805,6.029,0.0,-0.01,-0.026,101.0,101.0,101.0,13.3,1505.2,330.1,-0.8,1.8,2470.673,13.29,0.01,180.0
2022-09-12T03:31:03,42.805,6.029,0.005,0.007,0.003,100.0,102.0,100.0,13.4,1505.2,331.7,-0.8,1.8,2470.653,13.29,0.008,35.5
2022-09-12T03:34:03,42.805,6.029,0.001,0.002,-0.004,102.0,101.0,101.0,13.3,1505.2,321.9,-0.8,1.8,2470.65,13.29,0.002,26.6
2022-09-12T03:37:03,42.805,6.029,0.02,-0.009,0.004,100.0,101.0,101.0,13.4,1505.2,319.2,-0.7,1.8,2470.697,13.29,0.021,114.2
2022-09-12T03:40:03,42.805,6.029,0.021,0.013,-0.003,101.0,102.0,101.0,13.4,1505.2,330.2,-0.8,1.8,2470.688,13.29,0.024,58.2
2022-09-12T03:43:03,42.805,6.029,-0.002,0.006,-0.004,100.0,101.0,100.0,13.4,1505.2,327.8,-0.7,1.8,2470.703,13.29,0.006,341.6
2022-09-12T03:46:03,42.805,6.029,0.022,-0.005,0.002,103.0,101.0,101.0,13.4,1505.2,331.8,-0.7,1.8,2470.691,13.29,0.022,102.8
2022-09-12T03:49:03,42.805,6.029,0.036,0.001,0.002,99.0,103.0,101.0,13.3,1505.2,330.3,-0.8,1.9,2470.691,13.29,0.036,88.4
2022-09-12T03:52:03,42.805,6.029,0.0,-0.007,-0.007,100.0,101.0,100.0,13.4,1505.2,318.5,-0.8,1.8,2470.658,13.29,0.007,180.0
2022-09-12T03:55:03,42.805,6.029,0.018,-0.007,0.008,100.0,102.0,100.0,13.3,1505.2,329.7,-0.8,1.8,2470.617,13.29,0.019,111.2
2022-09-12T03:58:03,42.805,6.029,0.024,0.002,-0.007,101.0,102.0,101.0,13.4,1505.2,325.8,-0.8,1.8,2470.611,13.29,0.024,85.2
2022-09-12T04:04:03,42.805,6.029,0.006,0.015,0.027,101.0,102.0,102.0,13.4,1505.2,327.2,-0.8,1.8,2470.579,13.28,0.016,21.8
2022-09-12T04:07:03,42.805,6.029,0.045,-0.002,0.017,101.0,101.0,101.0,13.4,1505.2,318.4,-0.8,1.8,2470.579,13.28,0.045,92.5
2022-09-12T04:10:03,42.805,6.029,0.009,-0.007,-0.01,102.0,101.0,101.0,13.4,1505.2,324.1,-0.8,1.8,2470.594,13.28,0.011,127.9
2022-09-12T04:13:03,42.805,6.029,0.023,-0.018,-0.012,102.0,102.0,100.0,13.4,1505.2,328.1,-0.8,1.8,2470.625,13.28,0.029,128.0
2022-09-12T04:16:03,42.805,6.029,0.023,-0.002,0.009,101.0,103.0,100.0,13.4,1505.2,321.0,-0.8,1.8,2470.595,13.29,0.023,95.0
2022-09-12T04:19:03,42.805,6.029,0.011,-0.013,-0.011,102.0,103.0,100.0,13.4,1505.2,317.4,-0.7,1.8,2470.641,13.29,0.017,139.8
2022-09-12T04:22:03,42.805,6.029,-0.003,-0.003,-0.001,101.0,102.0,101.0,13.4,1505.2,321.3,-0.8,1.8,2470.642,13.29,0.004,225.0
2022-09-12T04:25:03,42.805,6.029,0.03,0.015,-0.004,102.0,101.0,101.0,13.4,1505.2,318.6,-0.7,1.8,2470.602,13.29,0.033,63.4
2022-09-12T04:28:03,42.805,6.029,0.01,-0.004,-0.006,102.0,102.0,101.0,13.4,1505.2,329.6,-0.8,1.8,2470.603,13.29,0.01,111.8
2022-09-12T04:31:03,42.805,6.029,0.025,-0.016,-0.005,103.0,101.0,101.0,13.4,1505.2,323.2,-0.8,1.8,2470.595,13.29,0.029,122.6
2022-09-12T04:34:03,42.805,6.029,0.0,-0.014,-0.006,102.0,102.0,101.0,13.4,1505.2,317.3,-0.8,1.8,2470.569,13.29,0.014,180.0
2022-09-12T04:37:03,42.805,6.029,0.009,-0.012,0.007,101.0,103.0,100.0,13.3,1505.2,321.0,-0.7,1.8,2470.601,13.29,0.015,143.1
2022-09-12T04:40:03,42.805,6.029,0.007,-0.001,0.024,101.0,103.0,103.0,13.4,1505.2,320.6,-0.7,1.8,2470.577,13.29,0.007,98.1
2022-09-12T04:43:03,42.805,6.029,0.003,-0.008,-0.001,101.0,101.0,102.0,13.3,1505.2,321.1,-0.7,1.8,2470.576,13.29,0.008,159.4
2022-09-12T04:46:03,42.805,6.029,-0.007,0.005,-0.019,102.0,102.0,101.0,13.4,1505.2,328.3,-0.8,1.8,2470.61,13.29,0.008,305.5
2022-09-12T04:49:03,42.805,6.029,0.011,-0.006,-0.013,101.0,102.0,101.0,13.3,1505.2,331.4,-0.8,1.8,2470.589,13.29,0.012,118.6
2022-09-12T04:52:03,42.805,6.029,0.03,0.002,0.018,101.0,103.0,102.0,13.4,1505.2,316.9,-0.8,1.9,2470.601,13.29,0.03,86.2
2022-09-12T04:55:03,42.805,6.029,0.012,-0.021,-0.022,102.0,102.0,101.0,13.3,1505.2,317.0,-0.8,1.8,2470.646,13.29,0.024,150.3
2022-09-12T04:58:03,42.805,6.029,0.007,0.011,0.026,103.0,103.0,101.0,13.4,1505.2,317.8,-0.8,1.8,2470.616,13.29,0.013,32.5
2022-09-12T05:04:03,42.805,6.029,-0.02,0.004,-0.005,101.0,103.0,101.0,13.4,1505.2,320.0,-0.7,1.8,2470.654,13.28,0.02,281.3
2022-09-12T05:07:03,42.805,6.029,0.018,-0.012,0.015,102.0,101.0,101.0,13.3,1505.2,332.8,-0.8,1.8,2470.627,13.28,0.021,123.7
2022-09-12T05:10:03,42.805,6.029,0.012,-0.006,-0.004,102.0,103.0,101.0,13.3,1505.2,332.3,-0.8,1.8,2470.622,13.28,0.013,116.6
2022-09-12T05:13:03,42.805,6.029,0.03,-0.019,0.004,102.0,103.0,101.0,13.4,1505.2,321.0,-0.8,1.8,2470.656,13.28,0.035,122.3
2022-09-12T05:16:03,42.805,6.029,0.0,-0.006,-0.018,101.0,102.0,101.0,13.4,1505.2,316.9,-0.8,1.8,2470.649,13.29,0.006,180.0
2022-09-12T05:19:03,42.805,6.029,0.01,-0.018,-0.02,102.0,102.0,101.0,13.3,1505.2,321.9,-0.8,1.8,2470.627,13.29,0.02,150.9
2022-09-12T05:22:03,42.805,6.029,0.01,0.004,-0.024,101.0,102.0,102.0,13.4,1505.2,323.1,-0.8,1.8,2470.653,13.29,0.01,68.2
2022-09-12T05:25:03,42.805,6.029,0.012,-0.001,-0.005,102.0,103.0,102.0,13.3,1505.2,326.1,-0.8,1.8,2470.654,13.29,0.012,94.8
2022-09-12T05:28:03,42.805,6.029,0.0,0.006,-0.013,102.0,102.0,101.0,13.4,1505.2,319.5,-0.8,1.8,2470.64,13.29,0.006,0.0
2022-09-12T05:31:03,42.805,6.029,0.009,0.0,0.035,101.0,101.0,101.0,13.4,1505.2,327.3,-0.8,1.8,2470.661,13.29,0.009,90.0
2022-09-12T05:34:03,42.805,6.029,-0.006,0.008,-0.003,102.0,103.0,101.0,13.4,1505.2,321.3,-0.7,1.9,2470.641,13.29,0.01,323.1
2022-09-12T05:37:03,42.805,6.029,0.028,0.005,0.033,102.0,103.0,101.0,13.4,1505.2,324.3,-0.7,1.8,2470.706,13.29,0.028,79.9
2022-09-12T05:40:03,42.805,6.029,0.009,-0.002,0.03,102.0,100.0,100.0,13.4,1505.2,324.6,-0.8,1.8,2470.674,13.29,0.009,102.5
2022-09-12T05:43:03,42.805,6.029,0.0,-0.014,-0.038,101.0,102.0,101.0,13.4,1505.2,326.8,-0.8,1.8,2470.686,13.29,0.014,180.0
2022-09-12T05:46:03,42.805,6.029,0.007,-0.005,-0.018,102.0,102.0,100.0,13.4,1505.2,323.4,-0.7,1.8,2470.756,13.29,0.008,125.5
2022-09-12T05:49:03,42.805,6.029,-0.004,0.007,-0.002,102.0,103.0,101.0,13.4,1505.2,330.6,-0.7,1.8,2470.726,13.29,0.008,330.3
2022-09-12T05:52:03,42.805,6.029,0.094,-0.015,0.075,101.0,105.0,101.0,13.4,1505.2,330.7,-0.7,1.8,2470.711,13.29,0.095,99.1
2022-09-12T05:55:03,42.805,6.029,0.038,0.0,0.032,101.0,103.0,101.0,13.4,1505.2,323.2,-0.7,1.9,2470.717,13.29,0.038,90.0
2022-09-12T05:58:03,42.805,6.029,0.0,-0.009,-0.042,100.0,103.0,100.0,13.3,1505.2,322.3,-0.8,1.8,2470.717,13.29,0.009,180.0
2022-09-12T06:04:03,42.805,6.029,0.12,0.02,0.148,101.0,109.0,100.0,13.4,1505.2,322.1,-0.8,1.8,2470.72,13.28,0.121,80.5
2022-09-12T06:07:03,42.805,6.029,0.029,-0.007,0.002,101.0,102.0,100.0,13.4,1505.2,325.3,-0.7,1.8,2470.723,13.28,0.029,103.6
2022-09-12T06:10:03,42.805,6.029,-0.016,0.005,0.007,104.0,111.0,101.0,13.3,1505.2,326.4,-0.8,1.8,2470.712,13.28,0.016,287.4
2022-09-12T06:13:03,42.805,6.029,-0.011,-0.009,0.002,102.0,107.0,101.0,13.4,1505.2,321.9,-0.7,1.8,2470.747,13.29,0.014,230.7
2022-09-12T06:16:03,42.805,6.029,0.085,0.003,0.094,100.0,105.0,102.0,13.4,1505.2,322.4,-0.8,1.8,2470.785,13.29,0.085,88.0
2022-09-12T06:19:03,42.805,6.029,0.005,-0.003,-0.009,104.0,104.0,100.0,13.4,1505.2,330.6,-0.7,1.8,2470.768,13.29,0.005,121.0
2022-09-12T06:22:03,42.805,6.029,-0.003,0.003,-0.015,102.0,103.0,101.0,13.4,1505.2,321.1,-0.8,1.8,2470.736,13.29,0.004,315.0
2022-09-12T06:25:03,42.805,6.029,-0.009,-0.004,-0.01,101.0,102.0,101.0,13.4,1505.2,322.3,-0.8,1.8,2470.78,13.29,0.009,246.0
2022-09-12T06:28:03,42.805,6.029,0.0,-0.022,-0.007,101.0,104.0,100.0,13.4,1505.2,332.5,-0.8,1.8,2470.76,13.29,0.022,180.0
2022-09-12T06:31:03,42.805,6.029,0.003,-0.018,-0.022,102.0,102.0,100.0,13.3,1505.2,327.9,-0.8,1.8,2470.806,13.29,0.018,170.5
2022-09-12T06:34:03,42.805,6.029,-0.02,-0.008,-0.03,100.0,103.0,102.0,13.4,1505.2,318.4,-0.8,1.8,2470.744,13.29,0.021,248.2
2022-09-12T06:37:03,42.805,6.029,0.055,-0.01,0.033,101.0,105.0,101.0,13.4,1505.2,332.2,-0.7,1.8,2470.784,13.29,0.055,100.3
2022-09-12T06:40:03,42.805,6.029,0.034,0.0,0.026,100.0,103.0,101.0,13.4,1505.2,328.2,-0.7,1.8,2470.783,13.29,0.034,90.0
2022-09-12T06:43:03,42.805,6.029,0.119,-0.03,0.056,100.0,106.0,101.0,13.3,1505.2,333.4,-0.7,1.8,2470.765,13.29,0.122,104.1
2022-09-12T06:46:03,42.805,6.029,-0.016,-0.003,-0.025,102.0,102.0,101.0,13.3,1505.2,329.6,-0.8,1.8,2470.806,13.29,0.016,259.4
2022-09-12T06:49:03,42.805,6.029,-0.014,0.009,0.005,104.0,105.0,100.0,13.4,1505.2,331.6,-0.8,1.8,2470.77,13.29,0.016,302.7
2022-09-12T06:52:03,42.805,6.029,0.018,0.0,0.027,102.0,105.0,102.0,13.3,1505.2,324.1,-0.8,1.8,2470.796,13.29,0.018,90.0
2022-09-12T06:55:03,42.805,6.029,0.185,0.046,0.191,101.0,107.0,101.0,13.3,1505.2,318.6,-0.8,1.8,2470.799,13.29,0.19,76.0
2022-09-12T06:58:03,42.805,6.029,-0.002,-0.02,-0.02,100.0,102.0,100.0,13.3,1505.2,321.5,-0.8,1.8,2470.774,13.29,0.02,185.7
2022-09-12T07:04:03,42.805,6.029,0.015,-0.009,-0.007,103.0,103.0,100.0,13.4,1505.2,327.5,-0.7,1.8,2470.801,13.28,0.017,121.0
2022-09-12T07:07:03,42.805,6.029,-0.003,-0.005,-0.018,101.0,103.0,103.0,13.4,1505.2,325.6,-0.7,1.8,2470.82,13.28,0.005,211.0
2022-09-12T07:10:03,42.805,6.029,0.005,0.004,-0.005,101.0,104.0,101.0,13.4,1505.2,327.8,-0.8,1.8,2470.773,13.29,0.006,51.3
2022-09-12T07:13:03,42.805,6.029,0.011,-0.01,-0.041,101.0,101.0,101.0,13.3,1505.2,318.4,-0.7,1.8,2470.814,13.29,0.014,132.3
2022-09-12T07:16:03,42.805,6.029,-0.039,-0.006,-0.051,101.0,102.0,101.0,13.4,1505.2,326.1,-0.7,1.8,2470.804,13.29,0.039,261.3
2022-09-12T07:19:03,42.805,6.029,0.009,-0.02,-0.015,101.0,102.0,101.0,13.4,1505.2,332.5,-0.7,1.8,2470.821,13.29,0.021,155.8
2022-09-12T07:22:03,42.805,6.029,0.027,-0.021,-0.011,102.0,103.0,99.0,13.4,1505.2,325.4,-0.7,1.8,2470.834,13.29,0.034,127.9
2022-09-12T07:25:03,42.805,6.029,-0.004,0.0,0.006,100.0,101.0,101.0,13.3,1505.2,331.8,-0.8,1.8,2470.827,13.29,0.004,270.0
2022-09-12T07:28:03,42.805,6.029,0.002,-0.009,-0.02,102.0,100.0,100.0,13.4,1505.2,321.1,-0.7,1.8,2470.785,13.29,0.009,167.5
2022-09-12T07:31:03,42.805,6.029,-0.013,-0.016,-0.016,101.0,110.0,100.0,13.4,1505.2,329.4,-0.7,1.8,2470.811,13.29,0.02,219.1
2022-09-12T07:34:03,42.805,6.029,0.008,-0.004,-0.006,101.0,101.0,100.0,13.4,1505.2,326.1,-0.8,1.8,2470.823,13.29,0.008,116.6
2022-09-12T07:37:03,42.805,6.029,0.006,0.001,-0.021,98.0,102.0,101.0,13.3,1505.2,332.8,-0.8,1.8,2470.85,13.29,0.006,80.5
2022-09-12T07:40:03,42.805,6.029,0.012,0.014,0.034,101.0,102.0,101.0,13.3,1505.2,322.5,-0.8,1.8,2470.836,13.29,0.018,40.6
2022-09-12T07:43:03,42.805,6.029,0.01,-0.013,-0.023,101.0,102.0,101.0,13.4,1505.2,320.0,-0.8,1.9,2470.813,13.29,0.016,142.4
2022-09-12T07:46:03,42.805,6.029,-0.037,0.001,-0.017,101.0,102.0,101.0,13.3,1505.2,322.5,-0.8,1.8,2470.84,13.29,0.037,271.5
2022-09-12T07:49:03,42.805,6.029,0.009,-0.015,-0.009,99.0,102.0,101.0,13.4,1505.2,324.3,-0.8,1.8,2470.833,13.29,0.017,149.0
2022-09-12T07:52:03,42.805,6.029,0.0,-0.012,-0.031,101.0,102.0,100.0,13.4,1505.2,319.8,-0.7,1.8,2470.834,13.29,0.012,180.0
2022-09-12T07:55:03,42.805,6.029,-0.003,0.011,0.016,100.0,101.0,101.0,13.4,1505.2,323.2,-0.8,1.8,2470.836,13.29,0.011,344.7
2022-09-12T07:58:03,42.805,6.029,-0.029,0.003,-0.017,102.0,101.0,101.0,13.3,1505.2,322.0,-0.8,1.8,2470.858,13.29,0.029,275.9
2022-09-12T08:04:03,42.805,6.029,0.001,0.001,-0.012,101.0,101.0,101.0,13.4,1505.2,324.3,-0.8,1.9,2470.834,13.29,0.001,45.0
2022-09-12T08:07:03,42.805,6.029,-0.044,-0.01,-0.047,102.0,101.0,101.0,13.4,1505.2,327.9,-0.8,1.8,2470.861,13.29,0.045,257.2
2022-09-12T08:10:03,42.805,6.029,-0.016,-0.001,0.001,103.0,103.0,100.0,13.4,1505.2,323.3,-0.7,1.8,2470.794,13.29,0.016,266.4
2022-09-12T08:13:03,42.805,6.029,-0.016,-0.001,-0.018,102.0,103.0,100.0,13.4,1505.2,332.5,-0.8,1.9,2470.87,13.29,0.016,266.4
2022-09-12T08:16:03,42.805,6.029,-0.004,-0.016,-0.024,101.0,101.0,100.0,13.4,1505.2,329.2,-0.7,1.8,2470.862,13.29,0.016,194.0
2022-09-12T08:19:03,42.805,6.029,-0.002,0.0,-0.016,102.0,100.0,102.0,13.4,1505.2,331.1,-0.8,1.8,2470.797,13.29,0.002,270.0
2022-09-12T08:22:03,42.805,6.029,0.005,0.006,0.02,101.0,102.0,100.0,13.4,1505.2,322.7,-0.8,1.8,2470.841,13.29,0.007,39.8
2022-09-12T08:25:03,42.805,6.029,-0.016,0.003,0.0,100.0,102.0,99.0,13.3,1505.2,322.5,-0.8,1.8,2470.845,13.29,0.016,280.6
2022-09-12T08:28:03,42.805,6.029,-0.002,0.0,-0.005,101.0,102.0,100.0,13.4,1505.2,325.4,-0.7,1.8,2470.85,13.29,0.002,270.0
2022-09-12T08:31:03,42.805,6.029,-0.002,0.003,-0.012,102.0,101.0,100.0,13.4,1505.2,326.1,-0.7,1.8,2470.848,13.29,0.003,326.3
2022-09-12T08:34:03,42.805,6.029,-0.002,-0.001,-0.009,99.0,102.0,100.0,13.4,1505.2,325.5,-0.7,1.8,2470.868,13.29,0.002,243.4
2022-09-12T08:37:03,42.805,6.029,-0.01,0.013,-0.003,101.0,101.0,101.0,13.3,1505.2,326.6,-0.8,1.8,2470.856,13.3,0.016,322.4
2022-09-12T08:40:03,42.805,6.029,0.008,0.0,0.003,101.0,102.0,100.0,13.4,1505.2,324.4,-0.8,1.8,2470.809,13.3,0.008,90.0
2022-09-12T08:43:03,42.805,6.029,-0.009,-0.003,-0.007,101.0,101.0,101.0,13.3,1505.2,319.2,-0.7,1.9,2470.817,13.3,0.009,251.6
2022-09-12T08:46:03,42.805,6.029,0.0,-0.02,-0.023,101.0,104.0,100.0,13.4,1505.2,332.5,-0.7,1.8,2470.848,13.3,0.02,180.0
2022-09-12T08:49:03,42.805,6.029,-0.01,0.009,-0.002,101.0,101.0,100.0,13.4,1505.2,334.0,-0.8,1.8,2470.821,13.3,0.013,312.0
2022-09-12T08:52:03,42.805,6.029,-0.015,0.004,-0.006,102.0,101.0,101.0,13.3,1505.2,323.5,-0.7,1.8,2470.856,13.3,0.015,284.9
2022-09-12T08:55:03,42.805,6.029,-0.002,0.005,-0.022,101.0,101.0,101.0,13.4,1505.2,334.5,-0.8,1.8,2470.823,13.3,0.005,338.2
2022-09-12T08:58:03,42.805,6.029,0.008,-0.007,-0.019,100.0,103.0,101.0,13.4,1505.2,324.3,-0.7,1.8,2470.863,13.3,0.01,131.2
2022-09-12T09:04:03,42.805,6.029,-0.011,-0.009,-0.022,101.0,101.0,100.0,13.4,1505.2,327.9,-0.7,1.8,2470.866,13.29,0.014,230.7
2022-09-12T09:07:03,42.805,6.029,-0.015,-0.006,-0.027,101.0,104.0,100.0,13.4,1505.2,320.5,-0.8,1.8,2470.827,13.29,0.016,248.2
2022-09-12T09:10:03,42.805,6.029,0.004,0.023,0.01,101.0,101.0,101.0,13.3,1505.2,326.8,-0.8,1.8,2470.838,13.29,0.023,9.9
2022-09-12T09:13:03,42.805,6.029,-0.007,-0.003,-0.018,102.0,102.0,98.0,13.3,1505.2,327.9,-0.8,1.8,2470.833,13.29,0.007,246.8
2022-09-12T09:16:03,42.805,6.029,0.016,0.001,0.016,101.0,102.0,101.0,13.4,1505.2,324.8,-0.8,1.8,2470.878,13.29,0.016,86.4
2022-09-12T09:19:03,42.805,6.029,0.0,0.011,0.013,102.0,102.0,101.0,13.3,1505.2,327.3,-0.7,1.8,2470.852,13.29,0.011,0.0
2022-09-12T09:22:03,42.805,6.029,-0.026,0.0,-0.031,100.0,102.0,101.0,13.4,1505.2,323.3,-0.7,1.8,2470.817,13.29,0.026,270.0
2022-09-12T09:25:03,42.805,6.029,-0.013,0.0,0.004,102.0,102.0,102.0,13.3,1505.2,317.7,-0.7,1.8,2470.814,13.29,0.013,270.0
2022-09-12T09:28:03,42.805,6.029,-0.028,0.019,0.001,100.0,101.0,102.0,13.3,1505.2,320.9,-0.8,1.8,2470.795,13.29,0.033,304.2
2022-09-12T09:31:03,42.805,6.029,0.007,-0.002,0.026,101.0,100.0,101.0,13.4,1505.2,322.9,-0.8,1.8,2470.815,13.29,0.007,105.9
2022-09-12T09:34:03,42.805,6.029,-0.005,-0.009,-0.022,101.0,100.0,100.0,13.3,1505.2,327.8,-0.8,1.8,2470.852,13.29,0.01,209.1
2022-09-12T09:37:03,42.805,6.029,-0.025,0.008,-0.036,101.0,101.0,102.0,13.3,1505.2,321.5,-0.8,1.8,2470.8,13.29,0.026,287.7
2022-09-12T09:40:03,42.805,6.029,0.0,-0.005,-0.005,101.0,102.0,101.0,13.4,1505.2,322.0,-0.8,1.8,2470.808,13.29,0.005,180.0
2022-09-12T09:43:03,42.805,6.029,-0.037,0.02,-0.018,100.0,101.0,101.0,13.4,1505.2,333.1,-0.8,1.8,2470.876,13.29,0.042,298.4
2022-09-12T09:46:03,42.805,6.029,-0.007,-0.005,-0.005,100.0,102.0,101.0,13.4,1505.2,316.5,-0.8,1.8,2470.855,13.29,0.008,234.5
2022-09-12T09:49:03,42.805,6.029,-0.022,-0.01,-0.046,102.0,101.0,100.0,13.4,1505.2,320.2,-0.8,1.8,2470.841,13.29,0.024,245.6
2022-09-12T09:52:03,42.805,6.029,-0.003,-0.003,-0.01,100.0,102.0,100.0,13.3,1505.2,322.8,-0.8,1.8,2470.814,13.29,0.004,225.0
2022-09-12T09:55:03,42.805,6.029,0.002,0.013,0.006,100.0,101.0,103.0,13.3,1505.2,324.5,-0.8,1.8,2470.827,13.29,0.013,8.7
2022-09-12T09:58:03,42.805,6.029,0.002,0.014,-0.022,101.0,101.0,103.0,13.3,1505.2,323.2,-0.8,1.8,2470.83,13.29,0.014,8.1